| time (UTC) | temp F | wind direction | speed knots | gust knots | rain 1hr in | rain 24hr in | rain mn in | humidity % | barometer mb |
| 20260906221156 | 88 | 90 | 2.6 | 3.5 | 0.00 | 0.00 | 0.00 | 18 | 1000.3 |
| 20260906215656 | 89 | 210 | 2.6 | 7.8 | 0.00 | 0.00 | 0.00 | 18 | 1000.5 |
| 20260906214156 | 88 | 290 | 1.7 | 3.5 | 0.00 | 0.00 | 0.00 | 19 | 1000.9 |
| 20260906212656 | 88 | 184 | 2.6 | 3.5 | 0.00 | 0.00 | 0.00 | 18 | 1001.1 |
| 20260906211156 | 88 | 352 | 3.5 | 7.0 | 0.00 | 0.00 | 0.00 | 19 | 1001.3 |
| 20260906205656 | 88 | 122 | 2.6 | 5.2 | 0.00 | 0.00 | 0.00 | 18 | 1001.6 |
| 20260906204157 | 88 | 229 | 3.5 | 10.4 | 0.00 | 0.00 | 0.00 | 19 | 1001.8 |
| 20260906202656 | 87 | 90 | 3.5 | 7.8 | 0.00 | 0.00 | 0.00 | 18 | 1001.8 |
| 20260906201157 | 87 | 255 | 2.6 | 7.0 | 0.00 | 0.00 | 0.00 | 19 | 1002.4 |
| 20260906195657 | 87 | 281 | 2.6 | 7.0 | 0.00 | 0.00 | 0.00 | 20 | 1002.3 |
| 20260906194157 | 87 | 209 | 3.5 | 7.0 | 0.00 | 0.00 | 0.00 | 20 | 1002.4 |
| 20260906192657 | 87 | 194 | 3.5 | 7.0 | 0.00 | 0.00 | 0.00 | 17 | 1002.4 |
| 20260906191157 | 86 | 147 | 4.3 | 8.7 | 0.00 | 0.00 | 0.00 | 21 | 1002.7 |
| 20260906185657 | 85 | 255 | 4.3 | 10.4 | 0.00 | 0.00 | 0.00 | 20 | 1002.7 |
| 20260906184157 | 85 | 331 | 3.5 | 8.7 | 0.00 | 0.00 | 0.00 | 22 | 1003.0 |
| 20260906182657 | 84 | 304 | 3.5 | 7.0 | 0.00 | 0.00 | 0.00 | 23 | 1003.2 |
| 20260906181157 | 83 | 358 | 4.3 | 7.0 | 0.00 | 0.00 | 0.00 | 24 | 1003.7 |
| 20260906175657 | 81 | 244 | 3.5 | 6.1 | 0.00 | 0.00 | 0.00 | 28 | 1004.1 |
| 20260906174157 | 79 | 319 | 4.3 | 7.8 | 0.00 | 0.00 | 0.00 | 31 | 1004.6 |
| 20260906172657 | 79 | 281 | 5.2 | 8.7 | 0.00 | 0.00 | 0.00 | 31 | 1004.9 |
| 20260906171157 | 78 | 355 | 2.6 | 6.1 | 0.00 | 0.00 | 0.00 | 33 | 1005.1 |
| 20260906165657 | 75 | 339 | 2.6 | 6.1 | 0.00 | 0.00 | 0.00 | 38 | 1005.6 |
| 20260906164157 | 74 | 337 | 2.6 | 6.1 | 0.00 | 0.00 | 0.00 | 39 | 1005.9 |
| 20260906162657 | 74 | 1 | 2.6 | 3.5 | 0.00 | 0.00 | 0.00 | 39 | 1006.0 |
| 20260906161157 | 72 | 0 | 0.9 | 3.5 | 0.00 | 0.00 | 0.00 | 42 | 1006.2 |
| 20260906155657 | 70 | 295 | 0.9 | 2.6 | 0.00 | 0.00 | 0.00 | 44 | 1006.4 |
| 20260906154157 | 68 | 23 | 0.0 | 0.0 | 0.00 | 0.00 | 0.00 | 46 | 1006.5 |
| 20260906152657 | 66 | 328 | 0.0 | 0.0 | 0.00 | 0.00 | 0.00 | 48 | 1006.9 |
| 20260906151157 | 64 | 328 | 0.0 | 0.0 | 0.00 | 0.00 | 0.00 | 53 | 1007.0 |
| 20260906145657 | 61 | 358 | 0.0 | 0.0 | 0.00 | 0.00 | 0.00 | 56 | 1007.2 |
| 20260906144157 | 59 | 338 | 0.9 | 2.6 | 0.00 | 0.00 | 0.00 | 60 | 1007.4 |
| 20260906142657 | 57 | 326 | 0.9 | 3.5 | 0.00 | 0.00 | 0.00 | 63 | 1007.5 |
| 20260906141157 | 55 | 295 | 0.9 | 1.7 | 0.00 | 0.00 | 0.00 | 66 | 1007.6 |
| 20260906135657 | 53 | 295 | 0.9 | 1.7 | 0.00 | 0.00 | 0.00 | 68 | 1007.7 |
| 20260906134157 | 51 | 295 | 0.9 | 3.5 | 0.00 | 0.00 | 0.00 | 71 | 1007.6 |
| 20260906132657 | 49 | 335 | 0.0 | 0.9 | 0.00 | 0.00 | 0.00 | 75 | 1007.3 |
| 20260906131157 | 48 | 335 | 0.0 | 0.0 | 0.00 | 0.00 | 0.00 | 76 | 1007.2 |
| 20260906125657 | 48 | 335 | 0.0 | 0.0 | 0.00 | 0.00 | 0.00 | 76 | 1007.0 |
| 20260906124157 | 48 | 335 | 0.0 | 0.0 | 0.00 | 0.00 | 0.00 | 75 | 1006.9 |
| 20260906122657 | 48 | 335 | 0.0 | 0.0 | 0.00 | 0.00 | 0.00 | 74 | 1006.7 |
| 20260906121157 | 49 | 335 | 0.0 | 0.9 | 0.00 | 0.00 | 0.00 | 75 | 1006.9 |
| 20260906115657 | 49 | 335 | 0.0 | 0.0 | 0.00 | 0.00 | 0.00 | 74 | 1006.8 |
| 20260906114157 | 50 | 335 | 0.0 | 0.0 | 0.00 | 0.00 | 0.00 | 74 | 1006.7 |
| 20260906112658 | 50 | 335 | 0.0 | 0.0 | 0.00 | 0.00 | 0.00 | 72 | 1006.8 |
| 20260906111157 | 51 | 335 | 0.0 | 0.0 | 0.00 | 0.00 | 0.00 | 71 | 1006.6 |
| 20260906105657 | 52 | 335 | 0.0 | 0.0 | 0.00 | 0.00 | 0.00 | 70 | 1006.6 |
| 20260906104157 | 52 | 263 | 0.0 | 0.9 | 0.00 | 0.00 | 0.00 | 70 | 1006.5 |
| 20260906102657 | 52 | 271 | 0.0 | 2.6 | 0.00 | 0.00 | 0.00 | 71 | 1006.5 |
| 20260906101157 | 52 | 3 | 0.0 | 0.0 | 0.00 | 0.00 | 0.00 | 69 | 1006.3 |
| 20260906095657 | 52 | 268 | 0.0 | 0.0 | 0.00 | 0.00 | 0.00 | 70 | 1006.3 |
| 20260906094158 | 53 | 268 | 0.0 | 0.0 | 0.00 | 0.00 | 0.00 | 68 | 1006.3 |
| 20260906092658 | 53 | 268 | 0.0 | 0.0 | 0.00 | 0.00 | 0.00 | 67 | 1006.2 |
| 20260906091158 | 54 | 268 | 0.0 | 0.0 | 0.00 | 0.00 | 0.00 | 65 | 1006.3 |
| 20260906085658 | 54 | 268 | 0.0 | 0.0 | 0.00 | 0.00 | 0.00 | 65 | 1006.1 |
| 20260906084158 | 55 | 268 | 0.0 | 0.0 | 0.00 | 0.00 | 0.00 | 65 | 1006.1 |
| 20260906082658 | 55 | 268 | 0.0 | 0.0 | 0.00 | 0.00 | 0.00 | 65 | 1006.0 |
| 20260906081158 | 55 | 268 | 0.0 | 0.0 | 0.00 | 0.00 | 0.00 | 65 | 1005.9 |
| 20260906075658 | 56 | 268 | 0.0 | 0.0 | 0.00 | 0.00 | 0.00 | 63 | 1005.7 |
| 20260906074158 | 57 | 268 | 0.0 | 0.0 | 0.00 | 0.00 | 0.00 | 62 | 1005.7 |
| 20260906072658 | 58 | 268 | 0.0 | 0.0 | 0.00 | 0.00 | 0.00 | 61 | 1005.6 |
| 20260906071158 | 58 | 268 | 0.0 | 0.0 | 0.00 | 0.00 | 0.00 | 60 | 1005.6 |
| 20260906065658 | 59 | 355 | 0.0 | 0.0 | 0.00 | 0.00 | 0.00 | 58 | 1005.6 |
| 20260906064158 | 60 | 11 | 0.0 | 0.0 | 0.00 | 0.00 | 0.00 | 56 | 1005.7 |
| 20260906062658 | 61 | 289 | 0.0 | 0.0 | 0.00 | 0.00 | 0.00 | 54 | 1005.5 |
| 20260906061158 | 61 | 293 | 0.9 | 1.7 | 0.00 | 0.00 | 0.00 | 53 | 1005.5 |
| 20260906055658 | 62 | 292 | 0.9 | 2.6 | 0.00 | 0.00 | 0.00 | 52 | 1005.3 |
| 20260906054158 | 63 | 342 | 0.0 | 0.9 | 0.00 | 0.00 | 0.00 | 50 | 1005.1 |
| 20260906052658 | 64 | 342 | 0.0 | 1.7 | 0.00 | 0.00 | 0.00 | 48 | 1005.0 |
| 20260906051158 | 65 | 342 | 0.0 | 0.9 | 0.00 | 0.00 | 0.00 | 47 | 1004.9 |
| 20260906045658 | 67 | 342 | 0.0 | 0.0 | 0.00 | 0.00 | 0.00 | 45 | 1004.9 |
| 20260906044158 | 68 | 342 | 0.9 | 2.6 | 0.00 | 0.00 | 0.00 | 43 | 1005.0 |
| 20260906042658 | 69 | 285 | 0.9 | 2.6 | 0.00 | 0.00 | 0.00 | 42 | 1004.9 |
| 20260906041158 | 69 | 312 | 2.6 | 3.5 | 0.00 | 0.00 | 0.00 | 42 | 1004.9 |
| 20260906035658 | 69 | 316 | 1.7 | 5.2 | 0.00 | 0.00 | 0.00 | 41 | 1004.6 |
| 20260906034158 | 71 | 295 | 0.9 | 2.6 | 0.00 | 0.00 | 0.00 | 40 | 1004.6 |
| 20260906032658 | 74 | 295 | 0.0 | 2.6 | 0.00 | 0.00 | 0.00 | 39 | 1004.1 |
| 20260906031158 | 75 | 149 | 0.0 | 2.6 | 0.00 | 0.00 | 0.00 | 37 | 1004.2 |
| 20260906025658 | 76 | 149 | 0.9 | 4.3 | 0.00 | 0.00 | 0.00 | 36 | 1004.1 |
| 20260906024158 | 76 | 150 | 1.7 | 4.3 | 0.00 | 0.00 | 0.00 | 36 | 1004.0 |
| 20260906022658 | 76 | 145 | 0.0 | 3.5 | 0.00 | 0.00 | 0.00 | 34 | 1003.9 |
| 20260906021158 | 77 | 188 | 0.9 | 0.0 | 0.00 | 0.00 | 0.00 | 30 | 1003.6 |
| 20260906015658 | 78 | 82 | 0.0 | 0.9 | 0.00 | 0.00 | 0.00 | 29 | 1003.2 |
| 20260906014158 | 79 | 28 | 0.9 | 2.6 | 0.00 | 0.00 | 0.00 | 28 | 1003.0 |
| 20260906012658 | 80 | 297 | 2.6 | 4.3 | 0.00 | 0.00 | 0.00 | 27 | 1003.0 |
| 20260906011158 | 81 | 236 | 4.3 | 9.6 | 0.00 | 0.00 | 0.00 | 26 | 1002.9 |
| 20260906005658 | 82 | 164 | 3.5 | 7.0 | 0.00 | 0.00 | 0.00 | 24 | 1002.9 |
| 20260906004158 | 82 | 227 | 2.6 | 5.2 | 0.00 | 0.00 | 0.00 | 23 | 1002.6 |
| 20260906002658 | 83 | 224 | 4.3 | 11.3 | 0.00 | 0.00 | 0.00 | 22 | 1002.6 |
| 20260906001158 | 84 | 233 | 3.5 | 8.7 | 0.00 | 0.00 | 0.00 | 23 | 1002.6 |
| 20260905235658 | 84 | 223 | 1.7 | 5.2 | 0.00 | 0.00 | 0.00 | 21 | 1002.4 |
| 20260905234158 | 85 | 236 | 1.7 | 5.2 | 0.00 | 0.00 | 0.00 | 21 | 1002.3 |
| 20260905232658 | 85 | 301 | 1.7 | 4.3 | 0.00 | 0.00 | 0.00 | 22 | 1002.3 |
| 20260905231158 | 86 | 266 | 1.7 | 4.3 | 0.00 | 0.00 | 0.00 | 23 | 1002.3 |
| 20260905225659 | 87 | 322 | 1.7 | 3.5 | 0.00 | 0.00 | 0.00 | 21 | 1002.3 |
| 20260905224159 | 88 | 109 | 1.7 | 2.6 | 0.00 | 0.00 | 0.00 | 20 | 1002.3 |
| 20260905222659 | 88 | 266 | 1.7 | 6.1 | 0.00 | 0.00 | 0.00 | 21 | 1002.4 |